{"data":{"norad_id":42920,"intl_designator":"2017-049A","name":"FORMOSAT-5","alt_names":[],"object_type":"PAYLOAD","status":"ACTIVE","operator":null,"country":"ROC","launch_date":"2017-08-24","launch_site_code":"AFWTR","launch_vehicle":null,"mission":null,"orbit_class":"UNKNOWN","rcs_meters":null,"size_class":null,"mass_kg":null,"dimensions":null,"purposes":["earth_obs"],"wikipedia_slug":null,"has_3d_model":false,"image_url":null,"decayed_at":null,"tle_current":{"epoch":"2026-05-25T03:46:03.561024Z","epoch_age_seconds":71775,"freshness":"FRESH","line1":"1 42920U 17049A   26145.15698566  .00000121  00000+0  41586-4 0  9993","line2":"2 42920  98.2254 220.9778 0012120 148.7103 211.4815 14.50888049463332","mean_motion":14.50888049,"eccentricity":0.001212,"inclination_deg":98.2254,"raan_deg":220.9778,"arg_perigee_deg":148.7103,"mean_anomaly_deg":211.4815,"bstar":4.1586e-5,"rev_number":46333,"period_min":99.249559674332,"perigee_km":714.14324837172,"apogee_km":731.35579730308,"semimajor_km":7100.8865228374,"source":"CELESTRAK","updated_at":"2026-05-25T13:38:12.825915Z"}}}